Powrót do katalogu

STARLINK-34382

AktywnyŁącznośćVLEO
NORAD 64667·PAYLOAD·🇺🇸 United States

Wystrzelony Jun 28, 2025 z Cape Canaveral Space Force Station

Loading…

Następne Przeloty (najbliższe 24 godziny)

TLE

ŚwieżeSource: CelesTrak SupGP

Epoka: Sep 15, 2026, 02:30 UTC

1 64667C 25139D   26258.10465278  .00055877  00000+0  16504-2 0  2582
2 64667  53.1590 324.7604 0001240  89.1979 111.2285 15.34371952    11

Śledź STARLINK-34382 w czasie rzeczywistym z AllMySat

Download on the App Store